﻿測定場所 (Monitoring sites),日付 (Measurement date),時間 (Measurement time),線量率 最大値 (max) μGy/h,線量率 最小値 (min) μGy/h,線量率 平均値 (average) μGy/h,
江東 (Koto),2012-05-06,23:01～24:00,0.0469,0.0411,0.0447,
江東 (Koto),2012-05-06,22:01～23:00,0.0480,0.0429,0.0448,
江東 (Koto),2012-05-06,21:01～22:00,0.0472,0.0420,0.0446,
江東 (Koto),2012-05-06,20:01～21:00,0.0484,0.0421,0.0445,
江東 (Koto),2012-05-06,19:01～20:00,0.0476,0.0423,0.0447,
江東 (Koto),2012-05-06,18:01～19:00,0.0487,0.0426,0.0455,
江東 (Koto),2012-05-06,17:01～18:00,0.0488,0.0437,0.0463,
江東 (Koto),2012-05-06,16:01～17:00,0.0485,0.0425,0.0454,
江東 (Koto),2012-05-06,15:01～16:00,0.0472,0.0426,0.0446,
江東 (Koto),2012-05-06,14:01～15:00,0.0473,0.0412,0.0445,
江東 (Koto),2012-05-06,13:01～14:00,0.0469,0.0409,0.0444,
江東 (Koto),2012-05-06,12:01～13:00,0.0472,0.0422,0.0444,
江東 (Koto),2012-05-06,11:01～12:00,0.0479,0.0413,0.0448,
江東 (Koto),2012-05-06,10:01～11:00,0.0470,0.0422,0.0443,
江東 (Koto),2012-05-06,09:01～10:00,0.0468,0.0414,0.0446,
江東 (Koto),2012-05-06,08:01～09:00,0.0464,0.0404,0.0442,
江東 (Koto),2012-05-06,07:01～08:00,0.0480,0.0419,0.0446,
江東 (Koto),2012-05-06,06:01～07:00,0.0461,0.0417,0.0446,
江東 (Koto),2012-05-06,05:01～06:00,0.0473,0.0424,0.0447,
江東 (Koto),2012-05-06,04:01～05:00,0.0471,0.0416,0.0444,
江東 (Koto),2012-05-06,03:01～04:00,0.0467,0.0418,0.0442,
江東 (Koto),2012-05-06,02:01～03:00,0.0473,0.0425,0.0445,
江東 (Koto),2012-05-06,01:01～02:00,0.0471,0.0420,0.0445,
江東 (Koto),2012-05-06,00:01～01:00,0.0483,0.0414,0.0446,
江東 (Koto),2012-05-05,23:01～24:00,0.0474,0.0413,0.0441,
江東 (Koto),2012-05-05,22:01～23:00,0.0483,0.0418,0.0445,
江東 (Koto),2012-05-05,21:01～22:00,0.0466,0.0421,0.0444,
江東 (Koto),2012-05-05,20:01～21:00,0.0472,0.0422,0.0444,
江東 (Koto),2012-05-05,19:01～20:00,0.0487,0.0420,0.0442,
江東 (Koto),2012-05-05,18:01～19:00,0.0469,0.0406,0.0446,
江東 (Koto),2012-05-05,17:01～18:00,0.0488,0.0419,0.0445,
江東 (Koto),2012-05-05,16:01～17:00,0.0482,0.0419,0.0448,
江東 (Koto),2012-05-05,15:01～16:00,0.0470,0.0418,0.0446,
江東 (Koto),2012-05-05,14:01～15:00,0.0474,0.0412,0.0445,
江東 (Koto),2012-05-05,13:01～14:00,0.0476,0.0415,0.0443,
江東 (Koto),2012-05-05,12:01～13:00,0.0480,0.0420,0.0445,
江東 (Koto),2012-05-05,11:01～12:00,0.0486,0.0418,0.0443,
江東 (Koto),2012-05-05,10:01～11:00,0.0476,0.0420,0.0444,
江東 (Koto),2012-05-05,09:01～10:00,0.0472,0.0418,0.0443,
江東 (Koto),2012-05-05,08:01～09:00,0.0480,0.0412,0.0444,
江東 (Koto),2012-05-05,07:01～08:00,0.0462,0.0415,0.0440,
江東 (Koto),2012-05-05,06:01～07:00,0.0474,0.0416,0.0442,
江東 (Koto),2012-05-05,05:01～06:00,0.0473,0.0416,0.0446,
江東 (Koto),2012-05-05,04:01～05:00,0.0463,0.0421,0.0442,
江東 (Koto),2012-05-05,03:01～04:00,0.0474,0.0415,0.0441,
江東 (Koto),2012-05-05,02:01～03:00,0.0500,0.0424,0.0445,
江東 (Koto),2012-05-05,01:01～02:00,0.0479,0.0410,0.0442,
江東 (Koto),2012-05-05,00:01～01:00,0.0468,0.0414,0.0446,
江東 (Koto),2012-05-04,23:01～24:00,0.0480,0.0423,0.0452,
江東 (Koto),2012-05-04,22:01～23:00,0.0480,0.0412,0.0446,
江東 (Koto),2012-05-04,21:01～22:00,0.0475,0.0402,0.0444,
江東 (Koto),2012-05-04,20:01～21:00,0.0482,0.0413,0.0442,
江東 (Koto),2012-05-04,19:01～20:00,0.0472,0.0424,0.0447,
江東 (Koto),2012-05-04,18:01～19:00,0.0487,0.0425,0.0456,
江東 (Koto),2012-05-04,17:01～18:00,0.0535,0.0447,0.0494,
江東 (Koto),2012-05-04,16:01～17:00,0.0611,0.0533,0.0570,
江東 (Koto),2012-05-04,15:01～16:00,0.0612,0.0515,0.0555,
江東 (Koto),2012-05-04,14:01～15:00,0.0547,0.0424,0.0481,
江東 (Koto),2012-05-04,13:01～14:00,0.0481,0.0411,0.0443,
江東 (Koto),2012-05-04,12:01～13:00,0.0468,0.0419,0.0444,
江東 (Koto),2012-05-04,11:01～12:00,0.0475,0.0422,0.0444,
江東 (Koto),2012-05-04,10:01～11:00,0.0476,0.0425,0.0450,
江東 (Koto),2012-05-04,09:01～10:00,0.0484,0.0429,0.0451,
江東 (Koto),2012-05-04,08:01～09:00,0.0477,0.0418,0.0450,
江東 (Koto),2012-05-04,07:01～08:00,0.0478,0.0414,0.0448,
江東 (Koto),2012-05-04,06:01～07:00,0.0479,0.0420,0.0446,
江東 (Koto),2012-05-04,05:01～06:00,0.0475,0.0420,0.0443,
江東 (Koto),2012-05-04,04:01～05:00,0.0478,0.0417,0.0442,
江東 (Koto),2012-05-04,03:01～04:00,0.0472,0.0422,0.0446,
江東 (Koto),2012-05-04,02:01～03:00,0.0474,0.0424,0.0446,
江東 (Koto),2012-05-04,01:01～02:00,0.0466,0.0419,0.0444,
江東 (Koto),2012-05-04,00:01～01:00,0.0465,0.0419,0.0443,
江東 (Koto),2012-05-03,23:01～24:00,0.0475,0.0414,0.0441,
江東 (Koto),2012-05-03,22:01～23:00,0.0468,0.0420,0.0444,
江東 (Koto),2012-05-03,21:01～22:00,0.0473,0.0413,0.0443,
江東 (Koto),2012-05-03,20:01～21:00,0.0465,0.0411,0.0440,
江東 (Koto),2012-05-03,19:01～20:00,0.0478,0.0417,0.0445,
江東 (Koto),2012-05-03,18:01～19:00,0.0480,0.0429,0.0456,
江東 (Koto),2012-05-03,17:01～18:00,0.0478,0.0428,0.0455,
江東 (Koto),2012-05-03,16:01～17:00,0.0477,0.0434,0.0454,
江東 (Koto),2012-05-03,15:01～16:00,0.0494,0.0442,0.0468,
江東 (Koto),2012-05-03,14:01～15:00,0.0523,0.0462,0.0490,
江東 (Koto),2012-05-03,13:01～14:00,0.0524,0.0466,0.0493,
江東 (Koto),2012-05-03,12:01～13:00,0.0562,0.0474,0.0514,
江東 (Koto),2012-05-03,11:01～12:00,0.0586,0.0509,0.0535,
江東 (Koto),2012-05-03,10:01～11:00,0.0533,0.0472,0.0502,
江東 (Koto),2012-05-03,09:01～10:00,0.0567,0.0496,0.0525,
江東 (Koto),2012-05-03,08:01～09:00,0.0601,0.0521,0.0548,
江東 (Koto),2012-05-03,07:01～08:00,0.0590,0.0504,0.0542,
江東 (Koto),2012-05-03,06:01～07:00,0.0595,0.0529,0.0558,
江東 (Koto),2012-05-03,05:01～06:00,0.0601,0.0532,0.0566,
江東 (Koto),2012-05-03,04:01～05:00,0.0589,0.0512,0.0552,
江東 (Koto),2012-05-03,03:01～04:00,0.0564,0.0499,0.0533,
江東 (Koto),2012-05-03,02:01～03:00,0.0538,0.0483,0.0509,
江東 (Koto),2012-05-03,01:01～02:00,0.0525,0.0464,0.0496,
江東 (Koto),2012-05-03,00:01～01:00,0.0509,0.0457,0.0486,
江東 (Koto),2012-05-02,23:01～24:00,0.0504,0.0445,0.0476,
江東 (Koto),2012-05-02,22:01～23:00,0.0498,0.0445,0.0471,
江東 (Koto),2012-05-02,21:01～22:00,0.0489,0.0436,0.0465,
江東 (Koto),2012-05-02,20:01～21:00,0.0509,0.0442,0.0470,
江東 (Koto),2012-05-02,19:01～20:00,0.0493,0.0445,0.0468,
江東 (Koto),2012-05-02,18:01～19:00,0.0501,0.0451,0.0470,
江東 (Koto),2012-05-02,17:01～18:00,0.0496,0.0444,0.0468,
江東 (Koto),2012-05-02,16:01～17:00,0.0491,0.0432,0.0462,
江東 (Koto),2012-05-02,15:01～16:00,0.0511,0.0429,0.0465,
江東 (Koto),2012-05-02,14:01～15:00,0.0498,0.0433,0.0461,
江東 (Koto),2012-05-02,13:01～14:00,0.0480,0.0431,0.0455,
江東 (Koto),2012-05-02,12:01～13:00,0.0490,0.0435,0.0457,
江東 (Koto),2012-05-02,11:01～12:00,0.0473,0.0425,0.0449,
江東 (Koto),2012-05-02,10:01～11:00,0.0475,0.0418,0.0443,
江東 (Koto),2012-05-02,09:01～10:00,0.0471,0.0411,0.0445,
江東 (Koto),2012-05-02,08:01～09:00,0.0468,0.0415,0.0442,
江東 (Koto),2012-05-02,07:01～08:00,0.0467,0.0410,0.0443,
江東 (Koto),2012-05-02,06:01～07:00,0.0480,0.0416,0.0442,
江東 (Koto),2012-05-02,05:01～06:00,0.0471,0.0414,0.0442,
江東 (Koto),2012-05-02,04:01～05:00,0.0459,0.0419,0.0439,
江東 (Koto),2012-05-02,03:01～04:00,0.0464,0.0421,0.0442,
江東 (Koto),2012-05-02,02:01～03:00,0.0477,0.0420,0.0444,
江東 (Koto),2012-05-02,01:01～02:00,0.0461,0.0395,0.0440,
江東 (Koto),2012-05-02,00:01～01:00,0.0478,0.0415,0.0444,
江東 (Koto),2012-05-01,23:01～24:00,0.0474,0.0422,0.0444,
江東 (Koto),2012-05-01,22:01～23:00,0.0457,0.0416,0.0439,
江東 (Koto),2012-05-01,21:01～22:00,0.0463,0.0416,0.0444,
江東 (Koto),2012-05-01,20:01～21:00,0.0479,0.0416,0.0442,
江東 (Koto),2012-05-01,19:01～20:00,0.0461,0.0414,0.0440,
江東 (Koto),2012-05-01,18:01～19:00,0.0474,0.0415,0.0441,
江東 (Koto),2012-05-01,17:01～18:00,0.0467,0.0416,0.0440,
江東 (Koto),2012-05-01,16:01～17:00,0.0467,0.0413,0.0437,
江東 (Koto),2012-05-01,15:01～16:00,0.0472,0.0419,0.0441,
江東 (Koto),2012-05-01,14:01～15:00,0.0465,0.0402,0.0438,
江東 (Koto),2012-05-01,13:01～14:00,0.0466,0.0420,0.0443,
江東 (Koto),2012-05-01,12:01～13:00,0.0464,0.0419,0.0444,
江東 (Koto),2012-05-01,11:01～12:00,0.0472,0.0409,0.0440,
江東 (Koto),2012-05-01,10:01～11:00,0.0468,0.0414,0.0442,
江東 (Koto),2012-05-01,09:01～10:00,0.0484,0.0411,0.0443,
江東 (Koto),2012-05-01,08:01～09:00,0.0468,0.0417,0.0442,
江東 (Koto),2012-05-01,07:01～08:00,0.0467,0.0410,0.0444,
江東 (Koto),2012-05-01,06:01～07:00,0.0464,0.0423,0.0445,
江東 (Koto),2012-05-01,05:01～06:00,0.0474,0.0420,0.0444,
江東 (Koto),2012-05-01,04:01～05:00,0.0485,0.0417,0.0444,
江東 (Koto),2012-05-01,03:01～04:00,0.0473,0.0421,0.0445,
江東 (Koto),2012-05-01,02:01～03:00,0.0473,0.0417,0.0442,
江東 (Koto),2012-05-01,01:01～02:00,0.0458,0.0408,0.0441,
江東 (Koto),2012-05-01,00:01～01:00,0.0464,0.0414,0.0443,
江東 (Koto),2012-04-30,23:01～24:00,0.0464,0.0413,0.0441,
江東 (Koto),2012-04-30,22:01～23:00,0.0467,0.0418,0.0440,
江東 (Koto),2012-04-30,21:01～22:00,0.0472,0.0412,0.0439,
江東 (Koto),2012-04-30,20:01～21:00,0.0462,0.0412,0.0441,
江東 (Koto),2012-04-30,19:01～20:00,0.0470,0.0404,0.0440,
江東 (Koto),2012-04-30,18:01～19:00,0.0466,0.0413,0.0441,
江東 (Koto),2012-04-30,17:01～18:00,0.0463,0.0417,0.0440,
江東 (Koto),2012-04-30,16:01～17:00,0.0463,0.0415,0.0443,
江東 (Koto),2012-04-30,15:01～16:00,0.0471,0.0422,0.0443,
江東 (Koto),2012-04-30,14:01～15:00,0.0475,0.0408,0.0445,
江東 (Koto),2012-04-30,13:01～14:00,0.0461,0.0411,0.0440,
江東 (Koto),2012-04-30,12:01～13:00,0.0473,0.0417,0.0442,
江東 (Koto),2012-04-30,11:01～12:00,0.0463,0.0415,0.0441,
江東 (Koto),2012-04-30,10:01～11:00,0.0483,0.0409,0.0446,
江東 (Koto),2012-04-30,09:01～10:00,0.0472,0.0411,0.0444,
江東 (Koto),2012-04-30,08:01～09:00,0.0475,0.0423,0.0445,
江東 (Koto),2012-04-30,07:01～08:00,0.0475,0.0419,0.0445,
江東 (Koto),2012-04-30,06:01～07:00,0.0471,0.0419,0.0442,
江東 (Koto),2012-04-30,05:01～06:00,0.0481,0.0415,0.0442,
江東 (Koto),2012-04-30,04:01～05:00,0.0465,0.0409,0.0444,
江東 (Koto),2012-04-30,03:01～04:00,0.0471,0.0410,0.0444,
江東 (Koto),2012-04-30,02:01～03:00,0.0469,0.0414,0.0442,
江東 (Koto),2012-04-30,01:01～02:00,0.0481,0.0417,0.0444,
江東 (Koto),2012-04-30,00:01～01:00,0.0478,0.0424,0.0446,
